Location: Ch�teau-Arnoux
(44.0814°N, 6.0027°E)
Time: 03:54:55
(UTC+00:00)

PSLV R/B - Pass Details

Date: 15 November 2019
Orbit: 505 x 579 km, 97.8° (Epoch: 10 December)

Event Time Altitude Azimuth Distance (km) Brightness Sun altitude
Rises 04:54:27 0° 9° (N) 2,664 7.3 -17.3°
Reaches altitude 10° 04:56:33 10° 6° (N) 1,781 6.4 -16.9°
Maximum altitude 05:00:20 62° 286° (WNW) 611 3.7 -16.2°
Drops below altitude 10° 05:04:12 10° 206° (SSW) 1,810 6.3 -15.6°
Sets 05:06:21 0° 202° (SSW) 2,711 7.2 -15.2°
